Location: Newark
(34.6283°N, 36.0776°E)
Time: 16:16:55
(UTC+00:00)

Altair - All Passes

Search period start: 17 September 2019 00:00
Search period end: 27 September 2019 00:00
Orbit: 1501 x 1683 km, 47.2° (Epoch: 16 September)

Date Brightness Start Highest point End Pass type
(mag) Time Alt. Az. Time Alt. Az. Time Alt. Az.
17 Sep - 00:49:35 10° WNW 00:59:11 59° SW 01:08:24 10° SSE visible
17 Sep - 02:58:47 10° W 03:02:23 13° WSW 03:05:56 10° SW visible
17 Sep - 14:04:12 10° SE 14:07:17 12° ESE 14:10:24 10° ESE daylight
17 Sep - 16:00:52 10° SSW 16:10:35 55° SE 16:20:22 10° ENE visible
17 Sep - 18:05:29 10° WSW 18:15:31 60° NNW 18:25:30 10° NE visible
17 Sep - 20:12:46 10° WNW 20:22:10 40° N 20:31:21 10° ENE visible
17 Sep - 22:19:07 10° NW 22:28:56 54° NNE 22:38:24 10° E visible
18 Sep - 00:24:18 10° WNW 00:34:03 64° SW 00:43:23 10° SE visible
18 Sep - 02:32:34 10° W 02:37:21 15° WSW 02:42:03 10° SSW visible
18 Sep - 15:35:52 10° SSW 15:45:25 51° SE 15:55:04 10° ENE daylight
18 Sep - 17:40:10 10° WSW 17:50:14 64° NNW 18:00:17 10° NE visible
18 Sep - 19:47:23 10° WNW 19:56:47 40° N 20:06:01 10° ENE visible
18 Sep - 21:53:51 10° NW 22:03:38 52° NNE 22:13:05 10° E visible
18 Sep - 23:59:03 10° WNW 00:08:54 70° SW 00:18:21 10° SE visible
19 Sep - 02:06:40 10° W 02:12:19 17° WSW 02:17:52 10° SSW visible
19 Sep - 15:10:54 10° SSW 15:20:17 46° SE 15:29:47 10° ENE daylight
19 Sep - 17:14:52 10° WSW 17:24:57 67° NNW 17:35:04 10° NE visible
19 Sep - 19:21:59 10° WNW 19:31:25 41° N 19:40:42 10° ENE visible
19 Sep - 21:28:34 10° NW 21:38:20 50° NNE 21:47:45 10° E visible
19 Sep - 23:33:47 10° WNW 23:43:44 75° SW 23:53:17 10° SE visible
20 Sep - 01:40:55 10° W 01:47:16 20° WSW 01:53:30 10° SSW visible
20 Sep - 14:45:59 10° SSW 14:55:09 42° SE 15:04:27 10° ENE daylight
20 Sep - 16:49:34 10° WSW 16:59:41 71° NNW 17:09:51 10° NE visible
20 Sep - 18:56:35 10° WNW 19:06:03 41° N 19:15:24 10° ENE visible
20 Sep - 21:03:17 10° NW 21:13:01 48° NNE 21:22:25 10° E visible
20 Sep - 23:08:33 10° NW 23:18:34 81° SW 23:28:11 10° SE visible
21 Sep - 01:15:16 10° WNW 01:22:13 22° SW 01:29:01 10° S visible
21 Sep - 14:21:06 10° SSW 14:30:02 38° SE 14:39:06 10° ENE daylight
21 Sep - 16:24:18 10° WSW 16:34:26 75° NNW 16:44:38 10° NE visible
21 Sep - 18:31:10 10° WNW 18:40:41 42° N 18:50:05 10° ENE visible
21 Sep - 20:38:00 10° NW 20:47:40 46° NNE 20:57:04 10° E visible
21 Sep - 22:43:18 10° NW 22:53:23 86° SW 23:03:04 10° SE visible
22 Sep - 00:49:42 10° WNW 00:57:10 25° SW 01:04:27 10° S visible
22 Sep - 13:56:16 10° S 14:04:55 35° SE 14:13:43 10° ENE daylight
22 Sep - 15:59:04 10° WSW 16:09:11 80° NW 16:19:25 10° NE visible
22 Sep - 18:05:46 10° W 18:15:19 43° NNW 18:24:48 10° ENE visible
22 Sep - 20:12:42 10° WNW 20:22:20 45° NNE 20:31:42 10° E visible
22 Sep - 22:18:03 10° NW 22:28:11 89° NE 22:37:55 10° SE visible
23 Sep - 00:24:12 10° WNW 00:32:06 28° SW 00:39:47 10° S visible
23 Sep - 13:31:28 10° S 13:39:49 32° SE 13:48:18 10° ENE daylight
23 Sep - 15:33:50 10° SW 15:43:56 85° NW 15:54:12 10° NE visible
23 Sep - 17:40:22 10° W 17:49:57 44° NNW 17:59:30 10° ENE visible
23 Sep - 19:47:24 10° WNW 19:56:59 44° NNE 20:06:21 10° E visible
23 Sep - 21:52:49 10° NW 22:02:58 84° NE 22:12:44 10° SE visible
23 Sep - 23:58:44 10° WNW 00:07:02 31° SW 00:15:04 10° S night (unlit)
24 Sep - 13:06:44 10° S 13:14:44 28° SE 13:22:50 10° ENE daylight
24 Sep - 15:08:39 10° SW 15:18:43 90° NW 15:28:58 10° NE daylight
24 Sep - 17:14:58 10° W 17:24:36 45° NNW 17:34:14 10° ENE visible
24 Sep - 19:22:05 10° WNW 19:31:37 43° N 19:40:59 10° E visible
24 Sep - 21:27:35 10° NW 21:37:46 79° NE 21:47:33 10° ESE visible
24 Sep - 23:33:19 10° WNW 23:41:57 35° SW 23:50:19 10° S night (unlit)
25 Sep - 12:42:04 10° S 12:49:39 25° SE 12:57:20 10° ENE daylight
25 Sep - 14:43:29 10° SW 14:53:30 85° SE 15:03:44 10° NE daylight
25 Sep - 16:49:35 10° W 16:59:15 47° NNW 17:08:57 10° NE visible
25 Sep - 18:56:45 10° WNW 19:06:16 42° N 19:15:37 10° ENE visible
25 Sep - 21:02:20 10° NW 21:12:31 74° NNE 21:22:20 10° ESE visible
25 Sep - 23:07:55 10° WNW 23:16:51 38° SW 23:25:30 10° SSE night (unlit)
26 Sep - 12:17:29 10° S 12:24:34 23° SE 12:31:46 10° ENE daylight
26 Sep - 14:18:20 10° SW 14:28:18 80° SE 14:38:30 10° NE daylight
26 Sep - 16:24:12 10° W 16:33:55 49° NNW 16:43:41 10° NE visible
26 Sep - 18:31:25 10° WNW 18:40:53 41° N 18:50:14 10° ENE visible
26 Sep - 20:37:06 10° NW 20:47:16 70° NNE 20:57:06 10° ESE visible
26 Sep - 22:42:34 10° WNW 22:51:45 42° SW 23:00:38 10° SSE night (unlit)
